Regional Weather Roundup
Issued by NWS Pendleton, OR

Home | Current Version | Previous Version | Text Only | Print | Product List | Glossary On
Versions: 1 2 3 4 5 6 7 8 9 10 11 12 13 14 15 16 17 18 19 20 21 22 23 24 25 26 27 28 29 30 31 32 33 34 35 36 37 38 39 40 41 42 43 44 45 46 47 48 49 50
006
ASUS46 KPDT 171010
RWRPDT
PENDLETON REGIONAL WEATHER ROUNDUP
NATIONAL WEATHER SERVICE PENDLETON OREGON
300 AM PDT TUE OCT 17 2017

NOTE: FAIR INDICATES FEW OR NO CLOUDS BELOW 12,000 FEET WITH NO
SIGNIFICANT WEATHER AND/OR OBSTRUCTIONS TO VISIBILITY.

# INDICATES UNOFFICIAL STATION AND DATA

WAZ520-171110-
EAST SLOPES OF WASHINGTON CASCADES

CITY            SKY/WX      TMP DP  RH  WIND    PRES   REMARKS
#BULLFROG       N/A         34  33  96  CALM    N/A
#CLE ELUM HS    N/A         37  33  85  CALM    29.98F
#CLE ELUM LAKE  N/A         48  33  56  CALM    29.98F
#EASTON DOT     N/A         40  36  85  CALM    N/A
#ELK HTS DOT    N/A         42  42  100 CALM    N/A
#GLENWOOD       N/A         27  25  92  CALM    30.10F
#NELSON 3SW     N/A         41  38  89  CALM    30.24F
#NILE           N/A         39  35  85  W1      29.35F
#TEANAWAY 4NE   N/A         37  31  79  CALM    N/A
#TROUT LAKE 1NE N/A         36  29  75  NW1     30.09F
#TROUT LAKE 1E  N/A         29  27  92  CALM    30.09F
$$

WAZ521-171110-
SIMCOE HIGHLANDS

CITY            SKY/WX      TMP DP  RH  WIND    PRES   REMARKS
#BICKLETON HS   N/A         52  32  46  CALM    30.01F
#CENTERVILLE 1SWN/A         33  28  82  CALM    30.02F
#GOLDENDALE 1NE N/A         37  22  54  N7      N/A
#GOLDENDALE 4W  N/A         34  18  51  CALM    30.08F
#GOODNOE HILLS  N/A         51  38  61  W8      N/A
#LYLE 6NE       N/A         47  39  74  CALM    30.07F
#PITT 4SE       N/A         48  37  65  CALM    30.06F
$$

WAZ026-171110-
KITTITAS VALLEY

CITY            SKY/WX      TMP DP  RH  WIND    PRES   REMARKS
ELLENSBURG AP   PTCLDY      37  32  82  E5      30.00F
#ELLENSBURG CWU N/A         39  34  82  CALM    29.96F
#ELLENSBURG 3NE N/A         38  33  82  CALM    28.09F
#ELLENSBURG 1E  N/A         36  33  89  CALM    30.07F
#KITTITAS 3S    N/A         31  28  88  CALM    30.03F
#MANASTASH RDG  N/A         51  50  96  S1      N/A
#ROCKY CYN DOT  N/A         42  34  73  W8      N/A
#RYEGRASS DOT   N/A         46  28  49  SW9     N/A
$$

WAZ027-171110-
YAKIMA VALLEY

CITY            SKY/WX      TMP DP  RH  WIND    PRES   REMARKS
SUNNYSIDE AP    CLEAR       33  32  96  CALM    30.01F
YAKIMA AIRPORT  CLEAR       33  29  85  W3      30.03F
YAKIMA-VAGABOND CLEAR       38  30  73  CALM    30.00F
#DONALD 2NE     N/A         48  16  27  NW3     30.02F
#GRANDVIEW      N/A         38  33  82  CALM    30.03F
#MABTON         N/A         36  33  89  CALM    30.01F
#MOXEE 2E       N/A         37  N/A N/A CALM    29.98F
#NACHES 2SW     N/A         45  35  68  W1      30.06S
#OUTLOOK DOT    N/A         36  35  96  CALM    29.98F
#PARKER DOT     N/A         41  36  82  CALM    30.00F
#TERRACE HTS    N/A         38  33  82  CALM    30.01S
#TOPPENISH      N/A         36  33  89  CALM    29.95F
#I82 S UMTANUM RN/A         42  30  62  CALM    N/A
#UNION GAP DOT  N/A         34  32  92  N2      30.06F
#W YAKIMA       N/A         43  33  67  CALM    30.02F
#WHITE SWAN 5E  N/A         31  27  85  CALM    30.04F
#WILEY CITY 3W  N/A         37  24  59  CALM    29.99F
#ZILLAH DOT     N/A         38  N/A N/A NW1     N/A
$$

WAZ028-171110-
LOWER COLUMBIA BASIN...WASHINGTON

CITY            SKY/WX      TMP DP  RH  WIND    PRES   REMARKS
PASCO           CLEAR       37  33  85  CALM    30.01F
PROSSER AWOS    N/A         34  34  100 SW3     30.04F
RICHLAND AWOS   CLEAR       42  39  89  CALM    30.00F
#BENTON CITY    N/A         46  36  68  CALM    29.91F
#CONNELL 5N     N/A         43  33  67  E1      30.01F
#CONNELL 5NW    N/A         48  22  35  CALM    29.96F
#ELTOPIA 6NW    N/A         48  38  68  CALM    28.96F
#KAHLOTUS       N/A         41  33  73  S12     30.01F WCI 34
#KENNEWICK 3S   N/A         56  37  49  SW3     30.00F
#PATERSON       N/A         46  38  73  CALM    30.01F
#PROSSER DOT    N/A         36  35  96  CALM    30.01F
#SAGEMOOR 2W    N/A         48  38  68  CALM    29.87F
#TOUCHET 2S     N/A         39  34  82  CALM    30.00F
#WEST PASCO     N/A         40  36  85  CALM    29.99F
$$

WAZ029-171110-
FOOTHILLS OF THE BLUES...WASHINGTON

CITY            SKY/WX      TMP DP  RH  WIND    PRES   REMARKS
WALLA WALLA AP  CLEAR       50  36  58  E5      30.02F
#CLYDE 6NW      N/A         46  32  58  CALM    30.01F
#DAYTON SCHOOL  N/A         48  30  49  CALM    30.05F
#DELANEY DOT    N/A         34  31  89  CALM    30.04F
#LOWDEN 2SE     N/A         39  35  85  CALM    29.99F
#PLEASANT VIEW 1N/A         51  31  46  S5      30.03F
#PRESCOTT       N/A         38  35  89  CALM    30.02F
#WHITMAN COLLEGEN/A         60  35  39  CALM    30.04F
#WAITSBURG 6SSE N/A         47  34  60  S3      30.01F
#WAITSBURG 8N   N/A         38  N/A N/A N3      29.76F
#WALLA WALLA 5E N/A         50  36  58  NE3     N/A
#WHITMAN MISSIONN/A         42  36  79  CALM    30.03F
$$

WAZ030-171110-
BLUE MOUNTAINS...WASHINGTON

CITY            SKY/WX      TMP DP  RH  WIND    PRES   REMARKS
#DIXIE 5SE      N/A         63  28  26  S8      29.99F
$$

ORZ009-041-WAZ024-171110-
COLUMBIA RIVER GORGE

CITY            SKY/WX      TMP DP  RH  WIND    PRES   REMARKS
HOOD RIVER AP   CLEAR       37  36  96  CALM    30.08F
THE DALLES AP   CLEAR       42  40  93  CALM    30.06F
#ARLINGTON AIRPON/A         55  40  57  W12     30.02F
#CELILO DOT     N/A         50  40  68  SW3     N/A
#LYLE           N/A         46  39  76  NE12    30.08F WCI 40
#MARYHILL       N/A         46  40  79  N6      N/A
#MURDOCK        N/A         48  42  80  NW6     30.02F
#RUFUS DOT      N/A         50  N/A N/A SE2     N/A
#SMITHVILLE     N/A         47  43  86  N3      30.01F

$$

ORZ510-171110-
NORTH CENTRAL OREGON

CITY            SKY/WX      TMP DP  RH  WIND    PRES   REMARKS
#ANTELOPE       N/A         38  30  73  NE2     29.96F
#CHENOWITH 1W   N/A         46  38  73  NW7     N/A
#COW CYN RST AREN/A         51  31  46  W6      N/A
#DUFUR          N/A         38  34  85  CALM    30.03F
#DUFUR 9E       N/A         56  33  42  CALM    30.07F
#GRASS VALLEY 1SN/A         44  36  73  S3      30.07F
#KENT DOT       N/A         48  28  46  S7      N/A
#MAUPIN SCHOOL  N/A         43  37  79  CALM    30.12F
#MORO SCHOOL    N/A         42  38  86  CALM    30.05F
#SHANIKO 5WSW   N/A         52   7  16  S10     N/A
#SHANIKO 4NW    N/A         54  31  41  S12     30.10F
#TYGH VALLEY 2NEN/A         40  35  82  CALM    30.07S
#WAPANITIA AIRPON/A         39  34  82  CALM    30.08F
#WASCO DOT      N/A         36  32  85  CALM    N/A
#WASCO 5NE      N/A         45  35  68  CALM    30.03F
$$

ORZ511-171110-
CENTRAL OREGON

CITY            SKY/WX      TMP DP  RH  WIND    PRES   REMARKS
BEND AIRPORT    PTCLDY      50  32  50  SW12    30.14F
MADRAS AIRPORT  PTCLDY      46  46  100 S8      30.11F
PRINEVILLE AP   PTCLDY      34  30  85  CALM    30.14F
REDMOND AIRPORT PTCLDY      34  28  78  SE3     30.12F
#ASHWOOD SCHOOL N/A         37  30  75  CALM    30.06F
#BEND 1SW       N/A         43  34  70  SW1     N/A
#BEND-AWBREY    N/A         48  34  58  S10     30.05F
#BEND-KIM LN    N/A         67  37  33  CALM    30.17S
#CULVER         N/A         42  32  67  CALM    29.94F
#CULVER 8W      N/A         50  31  48  S1      30.09F
#LAKE BILLY CHINN/A         51  N/A N/A S6      30.16F
#MADRAS 4S      N/A         44   4  19  CALM    N/A
#POWELL BUTTE   N/A         52  32  46  CALM    30.06F
#PRINEVILLE     N/A         40  34  79  CALM    30.21F
#PRINEVILLE 3N  N/A         35  31  85  CALM    30.13F
#WARM SPRINGS   N/A         37  30  75  CALM    29.94F

$$


ORZ509-171110-
EAST SLOPES OF OREGON CASCADES

CITY            SKY/WX      TMP DP  RH  WIND    PRES   REMARKS
SISTERS AWOS    N/A         30  27  88  CALM    N/A
#BLUE BOX PASS  N/A         54  N/A N/A CALM    N/A
#CAMP SHERMAN   N/A         29  26  88  CALM    30.16S
#LA PINE DOT    N/A         28  25  88  CALM    N/A
#LA PINE 4NW    N/A         26  22  85  CALM    30.24F
#LAVA BUTTE DOT N/A         38  29  70  NE3     N/A
#SISTERS ODOT   N/A         31  28  88  CALM    N/A
#SISTERS 3N     N/A         31  23  72  CALM    30.11S
#SUNRIVER       N/A         31  28  88  CALM    30.20S
#TUMALO 3W      N/A         55  28  35  SW3     29.93F
#WANOGA BUTTE D N/A         52  19  27  W5      N/A

$$

ORZ044-171110-
LOWER COLUMBIA BASIN...OREGON

CITY            SKY/WX      TMP DP  RH  WIND    PRES   REMARKS
HERMISTON       CLEAR       42  34  73  S8      30.02F HAZE
#BOARDMAN SCHOOLN/A         39  34  82  CALM    30.02F
#BOARDMAN 8SW   N/A         45  36  70  SW6     30.02F
#ECHO 8SW       N/A         43  34  70  SW2     30.03F
#I-84 EX 198 DOTN/A         53  32  45  NE8     N/A
#IONE SCHOOL    N/A         40  23  50  CALM    30.05F
#UMATILLA       N/A         42  33  70  CALM    29.96F
$$

ORZ507-171110-
NORTHERN FOOTHILLS OF THE BLUES

CITY            SKY/WX      TMP DP  RH  WIND    PRES   REMARKS
PENDLETON AIRPT CLEAR       47  32  56  S8      30.03F
#ADAMS 3WNW     N/A         46  33  60  CALM    30.03F
#ATHENA         N/A         56  32  40  S1      30.03F
#CAYUSE         N/A         53  34  48  E5      30.01F
#HELIX SCHOOL   N/A         37  31  79  N2      30.05F
#HELIX 3N       N/A         52  32  46  S8      30.01F
#HOLDMAN 5SE    N/A         46  34  63  SE2     30.02F
#HOLDMAN 6E     N/A         51  33  50  CALM    29.83F
#M-F GROVE ELEM N/A         53  30  41  CALM    29.99F
#M-FREEWATER 5SEN/A         58  34  40  E3      30.01F
#PENDLETON DNTN N/A         39  27  62  CALM    30.04S
#PDT AQUATIC CTRN/A         38  28  67  CALM    30.02F
#PDT SUNRIDGE   N/A         34  30  85  CALM    30.06F
#PENDLETON 7NW  N/A         40  31  70  CALM    30.09F
#PILOT ROCK 1S  N/A         44  25  47  CALM    30.06S
#PILOT ROCK     N/A         43  29  57  CALM    30.05F
#TUTUILLA       N/A         39  32  76  CALM    30.11F
#UMAPINE 2E     N/A         45  35  68  CALM    29.99F

$$

ORZ508-171110-
SOUTHERN FOOTHILLS OF THE BLUES

CITY            SKY/WX      TMP DP  RH  WIND    PRES   REMARKS
LEXINGTON       CLEAR       48  30  49  CALM    30.07F
#FOSSIL SCHOOL  N/A         48  33  56  CALM    30.02F
#HEPPNER EOC    N/A         53  32  45  E2      29.96F
#HEPPNER 4NE    N/A         56  31  38  SE3     30.01F
#LEXINGTON 2SE  N/A         41  31  67  CALM    30.00F
#MIKKALO        N/A         45  29  53  SE5     30.13F
#OLEX 4N        N/A         48  35  60  CALM    30.02F
#RUGGS 5NE      N/A         55  30  38  CALM    30.23S
#RUGGS 2SW      N/A         55  31  40  W3      30.03F

$$

ORZ502-503-171110-
BLUE MOUNTAINS

CITY            SKY/WX      TMP DP  RH  WIND    PRES   REMARKS
MEACHAM         CLEAR       30  26  85  CALM    30.12F
#BATTLE MTN DOT N/A         42  27  55  S8      N/A
#GREENHORN 9SW  N/A         30  27  88  CALM    26.39S
#HEPPNER 15SE   N/A         54  30  40  S1      30.07F
#LADD CYN SMT   N/A         39  25  57  SE3     N/A
#LADD CREEK ODOTN/A         41   1  18  S9      N/A
#LONG CREEK HS  N/A         44  34  68  W1      30.14F
#N POWDER DOT   N/A         25  24  96  SW1     N/A
#TOLLGATE       N/A         42  27  55  CALM    29.99F
#TROY SCHOOL    N/A         36  32  85  CALM    30.03F
#UKIAH          N/A         26  24  92  CALM    30.13F
#WESTON 4E      N/A         55  29  37  SE8     29.98F
$$

ORZ505-171110-
JOHN DAY BASIN

CITY            SKY/WX      TMP DP  RH  WIND    PRES   REMARKS
JOHN DAY        PTCLDY      44  32  62  E9      30.17F
#ANTELOPE 9ESE  N/A         42  31  65  W1      N/A
#DAYVILLE SCHOOLN/A         39  30  70  CALM    30.12F
#MITCHELL 8NW   N/A         57  28  33  W2      30.09F
#SPRAY SCHOOL   N/A         36  N/A N/A CALM    N/A
$$

ORZ506-171110-
OCHOCO AND JOHN DAY HIGHLANDS

CITY            SKY/WX      TMP DP  RH  WIND    PRES   REMARKS
#HORSE RIDGE DO N/A         28  24  85  SE1     N/A
#IZEE 6NW       N/A         30  28  92  CALM    N/A
#PAULINA ODOT   N/A         33  29  85  NE1     N/A
#PINE MTN OBS   N/A         52  23  32  SE8     N/A
#PRAIRIE CITY   N/A         32  27  82  CALM    30.32F
#SENECA         N/A         26  N/A N/A CALM    N/A
#SENECA 9NW     N/A         26  24  92  CALM    30.26F
$$

ORZ049-171110-
GRANDE RONDE VALLEY

CITY            SKY/WX      TMP DP  RH  WIND    PRES   REMARKS
LA GRANDE       CLEAR       53  25  33  S17     30.15F
#COVE           N/A         38  33  82  E2      30.17F
#COVE SCHOOL    N/A         39  32  76  CALM    30.16S
#COVE 6NW       N/A         48  29  47  SE3     30.15F
#ELGIN 3N       N/A         33  25  72  CALM    30.12F
#ELGIN 1E       N/A         35  27  72  CALM    N/A
#IMBLER SCHOOL  N/A         43  27  53  S3      30.11F
#ISLAND CITY 4N N/A         43  42  96  CALM    30.10S
#UNION 1S       N/A         48  29  47  E17G25  30.13F WCI 42
$$

ORZ050-171110-
WALLOWA COUNTY

CITY            SKY/WX      TMP DP  RH  WIND    PRES   REMARKS
JOSEPH AIRPORT  PTCLDY      36  28  72  CALM    30.16F
#ENTERPRISE HS  N/A         30  26  85  CALM    30.09F
#IMNAHA SCHOOL  N/A         42  31  65  N2      30.13F
#IMNAHA 10S     N/A         46  28  49  SW7     30.13F
#JOSEPH         N/A         37  31  79  CALM    30.33F
#JOSEPH 3N      N/A         30  24  78  CALM    30.15F
#JOSEPH 3W      N/A         45  31  58  SW2     30.55F
#LOSTINE        N/A         29  26  88  CALM    30.02F
#LOSTINE 3SE    N/A         34  28  78  CALM    30.19F
#MT HOWARD 8000 N/A         46  15  28  SW9     30.29F
#PROMISE 1S     N/A         40  27  59  CALM    30.20F
#WALLOWA LAKE   N/A         46  33  60  S2      30.16F
#WALLOWA SCHOOL N/A         27  25  92  CALM    30.14F



$$



USA.gov is the U.S. government's official web portal to all federal, state and local government web resources and services.